Grand Junction, CO

11:00 PM MST on February 20, 2017 (GMT -0700)
Walker

Weather History for KGJT - May, 2014

Change the Weather History Date:

Sunday, May 18, 2014

  Actual Average Record
Temperature  
Mean Temperature 69 °F 62 °F  
Max Temperature 85 °F 77 °F 92 °F (2006)
Min Temperature 53 °F 48 °F 36 °F (1983)
Degree Days  
Heating Degree Days 0 4  
Month to date heating degree days 173 116  
Since 1 July heating degree days 6219 5550  
Cooling Degree Days 4 2  
Month to date cooling degree days 10 16  
Year to date cooling degree days 10 19  
Growing Degree Days 18 (Base 50)    
Moisture  
Dew Point 28 °F    
Average Humidity 31    
Maximum Humidity 54    
Minimum Humidity 7    
Precipitation  
Precipitation 0.00 in 0.03 in 0.44 in (1988)
Month to date precipitation 1.05 0.56  
Year to date precipitation 3.34 3.51  
Snow  
Snow 0.00 in 0.00 in 0.00 in (2015)
Month to date snowfall 0.0 0.1  
Since 1 July snowfall 25.7 19.1  
Snow Depth 0.00 in    
Sea Level Pressure  
Sea Level Pressure 29.58 in    
Wind  
Wind Speed 10 mph (SE)    
Max Wind Speed 29 mph    
Max Gust Speed 35 mph    
Visibility 10 miles    
Events      
T = Trace of Precipitation, MM = Missing Value Source: NWS Daily Summary

Daily Weather History Graph

Daily Weather History Graph

Search for Another Location

Airport or City:

Trip Planner

Search our weather history database for the weather conditions in past years. The results will help you decide how hot, cold, wet, or windy it might be!

Date:

Astronomy

May. 18, 2014 Rise Set
Actual Time 5:58 AM MDT 8:23 PM MDT
Civil Twilight 5:28 AM MDT 8:53 PM MDT
Nautical Twilight 4:50 AM MDT 9:31 PM MDT
Astronomical Twilight 4:08 AM MDT 10:13 PM MDT
Moon No Moon Rise 9:50 AM MDT (5/18)
Length of Visible Light 15h 25m
Length of Day
14h 24m
Waning Gibbous, 80% of the Moon is Illuminated
May 18
Waning Gibbous
May 21
Last Quarter
May 28
New
Jun 5
First Quarter
Jun 12
Full

Hourly Weather History & Observations

Time (MDT) Temp. Dew Point Humidity Pressure Visibility Wind Dir Wind Speed Gust Speed Precip Events Conditions
12:53 AM 63.0 °F 34.0 °F 34% 29.67 in 10.0 mi East 10.4 mph - N/A   Clear
1:53 AM 63.0 °F 32.0 °F 31% 29.65 in 10.0 mi ESE 11.5 mph - N/A   Clear
2:53 AM 61.0 °F 32.0 °F 34% 29.64 in 10.0 mi ESE 15.0 mph - N/A   Clear
3:53 AM 59.0 °F 32.0 °F 36% 29.65 in 10.0 mi ESE 12.7 mph - N/A   Clear
4:53 AM 55.9 °F 34.0 °F 44% 29.65 in 10.0 mi ESE 10.4 mph - N/A   Clear
5:53 AM 54.0 °F 35.1 °F 49% 29.66 in 10.0 mi NE 3.5 mph - N/A   Clear
6:53 AM 54.0 °F 37.9 °F 55% 29.68 in 10.0 mi ESE 6.9 mph - N/A   Clear
7:53 AM 59.0 °F 37.9 °F 46% 29.67 in 10.0 mi SE 8.1 mph - N/A   Clear
8:53 AM 63.0 °F 34.0 °F 34% 29.68 in 10.0 mi SE 9.2 mph - N/A   Clear
9:53 AM 69.1 °F 37.9 °F 32% 29.67 in 10.0 mi Variable 4.6 mph - N/A   Clear
10:53 AM 73.9 °F 32.0 °F 21% 29.63 in 10.0 mi SE 9.2 mph - N/A   Clear
11:53 AM 79.0 °F 27.0 °F 15% 29.59 in 10.0 mi South 8.1 mph - N/A   Clear
12:53 PM 82.9 °F 24.1 °F 12% 29.56 in 10.0 mi Variable 5.8 mph - N/A   Clear
1:53 PM 84.0 °F 21.0 °F 10% 29.53 in 10.0 mi SW 19.6 mph 27.6 mph 0.00 in   Clear
2:53 PM 82.0 °F 25.0 °F 12% 29.52 in 10.0 mi West 9.2 mph - N/A   Clear
3:53 PM 84.0 °F 17.1 °F 8% 29.51 in 10.0 mi South 20.7 mph 27.6 mph N/A   Clear
4:53 PM 84.0 °F 17.1 °F 8% 29.50 in 10.0 mi SW 18.4 mph 32.2 mph N/A   Clear
5:53 PM 82.0 °F 12.0 °F 7% 29.52 in 10.0 mi West 20.7 mph 31.1 mph N/A   Clear
6:53 PM 80.1 °F 18.0 °F 10% 29.51 in 10.0 mi West 15.0 mph - N/A   Clear
7:53 PM 75.9 °F 26.1 °F 16% 29.49 in 10.0 mi NW 3.5 mph - N/A   Clear
8:53 PM 64.9 °F 32.0 °F 29% 29.50 in 10.0 mi East 3.5 mph - N/A   Clear
9:53 PM 57.9 °F 34.0 °F 41% 29.51 in 10.0 mi ESE 4.6 mph - N/A   Clear
10:53 PM 63.0 °F 30.0 °F 29% 29.50 in 10.0 mi ESE 9.2 mph - N/A   Clear
11:53 PM 64.0 °F 26.1 °F 24% 29.51 in 10.0 mi ESE 11.5 mph - N/A   Clear